Location: Rayville (historical)
(39.9992°N, 99.6815°W)
Time: 01:47:35
(UTC+00:00)

Cosmos 1633 Rocket - Pass Details

Date: 18 February 2020
Orbit: 608 x 622 km, 82.5° (Epoch: 09 April)

Event Time Altitude Azimuth Distance (km) Brightness Sun altitude
Rises 00:44:19 0° 148° (SSE) 2,857 6.3 -6.0°
Reaches altitude 10° 00:47:05 10° 130° (SE) 1,957 5.3 -6.5°
Maximum altitude 00:50:01 18° 87° (E) 1,499 4.4 -7.1°
Drops below altitude 10° 00:52:59 10° 44° (NE) 1,966 5.2 -7.7°
Sets 00:55:46 0° 25° (NNE) 2,876 6.1 -8.2°
